Location: ??????
(56.0120°N, 39.1740°E)
Time: 06:47:43
(UTC+00:00)

Cosmos 2237 - Pass Details

Date: 14 April 2026
Orbit: 846 x 857 km, 70.8° (Epoch: 13 May)

Event Time Altitude Azimuth Distance (km) Brightness Sun altitude
Rises 23:28:23 0° 324° (NW) 3,436 7.7 -19.4°
Reaches altitude 10° 23:30:50 10° 324° (NW) 2,498 6.9 -19.2°
Maximum altitude 23:36:36 87° 238° (WSW) 866 4.2 -18.7°
Drops below altitude 10° 23:42:20 10° 149° (SSE) 2,488 6.4 -18.3°
Sets 23:44:47 0° 149° (SSE) 3,421 7.1 -18.1°
